Retour au catalogue

STARLINK-37300

ActifCommunicationsSSO
NORAD 68682·PAYLOAD·🇺🇸 United States

Lancé Apr 11, 2026 depuis Vandenberg Space Force Base

Loading…

Prochains Passages (prochaines 24 heures)

TLE

FraisSource: CelesTrak SupGP

Époque: Sep 15, 2026, 02:43 UTC

1 68682C 26077W   26258.11368056  .00047291  00000+0  14675-2 0  2580
2 68682  97.2850 128.1617 0002067  97.1030 221.5617 15.33424640    11

Suivez STARLINK-37300 en temps réel avec AllMySat

Download on the App Store